Regional Weather Roundup
Issued by NWS Little Rock, AR

Home | Current Version | Previous Version | Graphics & Text | Print | Product List | Glossary On
Versions: 1 2 3 4 5 6 7 8 9 10 11 12 13 14 15 16 17 18 19 20 21 22 23 24 25 26 27
000
ASUS44 KLZK 200005
RWRLZK

WEATHER ROUNDUP FOR ARKANSAS
NATIONAL WEATHER SERVICE LITTLE ROCK AR
700 PM CDT SAT APR 19 2014

NOTE: "FAIR" INDICATES FEW OR NO CLOUDS BELOW 12,000 FEET WITH NO
SIGNIFICANT WEATHER AND/OR OBSTRUCTIONS TO VISIBILITY.

ARZ001-003-010-029-200100-
NORTHWEST ARKANSAS

CITY           SKY/WX    TMP DP  RH WIND       PRES   REMARKS
FAYETTEVILLE   CLEAR     70  49  47 S7        30.12F
6HR MIN TEMP:  70; 6HR MAX TEMP:  75;

FORT SMITH     CLEAR     78  47  33 S3        30.09S
6HR MIN TEMP:  75; 6HR MAX TEMP:  81;

HARRISON       CLEAR     73  46  38 E8        30.13S
6HR MIN TEMP:  71; 6HR MAX TEMP:  77;

BENTONVILLE    CLEAR     73  46  38 SW7       30.13S
6HR MIN TEMP:  72; 6HR MAX TEMP:  75;

ROGERS         CLEAR     73  45  36 S10       30.13S
6HR MIN TEMP:  71; 6HR MAX TEMP:  76;

SILOAM SPGS    SUNNY     72  46  40 S8        30.13S
6HR MIN TEMP:  72; 6HR MAX TEMP:  75;

HIGHFILL       CLEAR     72  46  39 S9        30.11F
6HR MIN TEMP:  71; 6HR MAX TEMP:  75;

SPRINGDALE     CLEAR     73  48  40 SE6G12    30.14S
$$

ARZ004-005-016-200100-
NORTH CENTRAL ARKANSAS

CITY           SKY/WX    TMP DP  RH WIND       PRES   REMARKS
BATESVILLE     CLEAR     73  46  38 E7        30.13S
6HR MIN TEMP:  73; 6HR MAX TEMP:  79;

FLIPPIN        CLEAR     75  45  33 SE3       30.13S
6HR MIN TEMP:  72; 6HR MAX TEMP:  77;

MTN HOME       CLEAR     74  41  30 SE5       30.12S
6HR MIN TEMP:  73; 6HR MAX TEMP:  78;

$$

ARZ040-041-200100-
WEST CENTRAL ARKANSAS

CITY           SKY/WX    TMP DP  RH WIND       PRES   REMARKS
MENA           PTCLDY    73  46  38 SE3       30.13F
MOUNT IDA      PTCLDY    73  52  47 CALM      30.11S
6HR MIN TEMP:  72; 6HR MAX TEMP:  76;

$$

ARZ009-017-025-026-028-200100-
NORTHEAST ARKANSAS

CITY           SKY/WX    TMP DP  RH WIND       PRES   REMARKS
CORNING        FAIR      72  46  40 NE8       30.16R
JONESBORO      CLEAR     72  45  37 NE8       30.14S
6HR MIN TEMP:  72; 6HR MAX TEMP:  76;

NEWPORT        CLEAR     74  45  35 E5        30.15S
6HR MIN TEMP:  73; 6HR MAX TEMP:  76;

WALNUT RIDGE   CLEAR     72  46  40 E7        30.15S
6HR MIN TEMP:  72; 6HR MAX TEMP:  75;

BLYTHEVILLE    PTCLDY    73  47  39 N9        30.15S
6HR MIN TEMP:  73; 6HR MAX TEMP:  77;

$$

ARZ022-023-033-042-044-200100-
CENTRAL ARKANSAS

CITY           SKY/WX    TMP DP  RH WIND       PRES   REMARKS
LITTLE ROCK    PTCLDY    73  48  41 E6        30.13S
6HR MIN TEMP:  73; 6HR MAX TEMP:  78;

N LITTLE ROCK  PTCLDY    73  50  43 SE6       30.13S
6HR MIN TEMP:  72; 6HR MAX TEMP:  76;

JACKSONVILLE   CLEAR     75  49  40 S7        30.13S
6HR MIN TEMP:  74; 6HR MAX TEMP:  78; 6HR PCP: TRACE;

SEARCY         CLEAR     74  49  41 VRB6      30.15R
6HR MIN TEMP:  73; 6HR MAX TEMP:  78;

HOT SPRINGS    CLEAR     75  49  39 CALM      30.13S
6HR MIN TEMP:  73; 6HR MAX TEMP:  78;

RUSSELLVILLE   CLEAR     76  51  41 CALM      30.11F
6HR MIN TEMP:  72; 6HR MAX TEMP:  78;

CLINTON        FAIR      73  52  46 SW3       30.13F
$$

ARZ036-200100-
EAST ARKANSAS

CITY           SKY/WX    TMP DP  RH WIND       PRES   REMARKS
WEST MEMPHIS   CLEAR     74  46  36 N6        30.12S
6HR MIN TEMP:  74; 6HR MAX TEMP:  78;

$$

ARZ050-053-066-070-073-200100-
SOUTHWEST ARKANSAS

CITY           SKY/WX    TMP DP  RH WIND       PRES   REMARKS
ARKADELPHIA    FAIR      77  53  43 CALM      30.12S
6HR MIN TEMP:  74; 6HR MAX TEMP:  79;

CAMDEN         CLEAR     77  50  38 MISG      30.11F
TEXARKANA      PTCLDY    69  57  65 CALM      30.12F
6HR MIN TEMP:  69; 6HR MAX TEMP:  77;

EL DORADO      MOCLDY    71  60  68 CALM      30.12S
6HR MIN TEMP:  71; 6HR MAX TEMP:  78;

DE QUEEN       CLEAR     73  53  49 S3        30.10F
6HR MIN TEMP:  72; 6HR MAX TEMP:  77;

$$

ARZ056-057-069-200100-
SOUTHEAST ARKANSAS

CITY           SKY/WX    TMP DP  RH WIND       PRES   REMARKS
PINE BLUFF     CLEAR     73  51  46 E5        30.13S
6HR MIN TEMP:  72; 6HR MAX TEMP:  78;

STUTTGART      CLEAR     73  48  40 N3        30.14S
6HR MIN TEMP:  73; 6HR MAX TEMP:  75;

MONTICELLO     CLEAR     75  51  43 E6        30.12S
6HR MIN TEMP:  74; 6HR MAX TEMP:  79;


$$





USA.gov is the U.S. government's official web portal to all federal, state and local government web resources and services.